Wetbulb
46.31 46.64 46.12 45.08 45.12 46.10 42.29 38.64 31.02 40.50 43.08 31.52 26.63 26.54 31.10 37.07 33.73 35.93 33.92 32.97 30.42 26.13 24.20 27.97 23.63 25.95 31.71 37.26 36.26 31.49 36.99 34.55 27.73 32.02 38.76 39.42 37.42 34.22 34.61 26.40 25.85 29.84 27.39 24.40
46.59 46.67 45.26 44.64 45.30 45.42 39.37 35.11 34.49 40.97 40.37 25.88 24.79 30.50 33.38 34.12 32.23 31.99 32.17 30.70 31.63 29.20 22.70 22.86 24.56 25.18 34.62 35.49 34.33 34.80 36.98 32.35 26.00 27.43 33.34 37.20 34.47 35.56 37.24 36.15 34.34 28.12 24.67 24.60
46.31 45.93 44.76 44.52 45.32 45.70 40.01 35.18 29.36 34.45 35.34 32.07 29.63 28.76 29.97 29.29 34.54 32.63 32.56 31.50 31.06 27.41 24.90 29.91 23.84 24.33 31.87 34.62 34.69 39.97 39.10 33.95 30.28 24.95 28.53 33.85 31.72 34.87 36.81 35.01 29.69 27.48 26.96 27.41
45.90 44.49 43.96 44.33 45.39 45.22 39.98 34.11 30.61 34.12 27.64 28.72 29.26 29.65 29.88 28.04 27.28 31.54 31.57 29.39 28.68 26.72 20.93 25.36 25.21 27.51 29.04 33.59 36.96 37.23 36.88 29.86 32.87 32.64 33.31 31.90 30.92 32.27 36.08 33.47 31.91 26.83 27.60 26.59
45.07 44.09 43.65 43.94 45.03 44.71 38.17 31.68 32.12 30.75 31.47 33.28 29.39 29.96 28.25 28.30 29.41 28.74 27.15 26.83 29.18 27.75 25.86 27.11 25.68 27.74 28.12 28.67 34.03 33.76 37.54 29.68 31.83 30.04 30.93 30.25 27.37 29.81 29.87 33.01 32.12 30.18 28.40 25.77
44.33 43.62 43.44 43.74 44.25 42.75 35.90 35.31 35.25 32.80 29.97 28.75 26.71 26.66 29.67 29.37 30.37 31.50 32.00 30.08 28.33 27.94 29.33 31.48 32.66 33.28 33.46 32.96 31.13 30.86 33.70 31.89 30.72 26.45 32.59 30.84 23.66 27.30 28.23 29.00 30.50 31.63 26.46 28.57
44.04 43.50 43.27 43.77 43.93 42.39 38.54 36.23 33.56 29.87 25.34 27.75 28.40 30.75 30.70 30.36 30.77 28.37 32.03 31.62 28.57 32.36 35.80 34.65 34.75 33.61 33.09 33.78 33.83 35.49 32.76 31.94 32.76 28.00 30.09 18.86 27.67 32.13 33.13 28.22 28.57 31.46 30.08 28.94
43.72 43.14 42.99 43.88 44.30 43.68 38.86 37.67 34.77 29.76 24.24 28.75 30.42 31.27 30.66 30.31 31.03 29.54 31.31 32.64 33.75 34.80 32.19 29.13 29.00 28.49 29.41 34.60 36.65 35.96 36.51 32.98 30.19 27.48 24.25 27.12 28.11 28.62 27.53 28.45 26.54 30.27 30.72 29.46
44.21 42.92 43.45 44.13 44.69 44.28 39.05 37.27 36.36 32.25 28.63 27.43 33.33 29.26 29.87 25.69 25.18 27.01 30.19 34.52 34.88 33.44 29.80 28.31 23.82 23.69 26.98 26.90 31.32 35.86 35.54 33.77 30.54 28.89 22.51 19.25 24.80 28.67 32.65 32.33 23.29 30.64 29.93 28.48
44.35 43.18 43.81 44.16 45.05 44.98 39.83 36.93 36.86 32.36 26.83 30.38 31.49 27.43 27.96 30.09 26.99 25.19 27.80 30.04 30.97 31.56 23.88 23.14 22.64 21.77 30.13 26.37 26.07 27.28 27.81 28.65 24.95 26.00 23.50 24.62 27.86 31.23 34.18 24.06 23.52 32.05 29.68 28.01
44.31 43.79 43.69 44.16 44.86 44.76 40.01 36.59 36.97 33.16 28.14 29.46 35.10 35.61 31.37 30.06 27.99 22.93 27.42 25.39 27.19 25.58 21.75 23.22 22.98 23.78 28.01 28.82 30.65 29.66 25.61 25.34 22.85 24.90 20.00 16.55 30.01 30.83 25.46 30.04 33.44 31.70 30.60 29.17
43.96 43.95 43.51 44.06 44.20 44.13 41.26 34.14 37.70 36.42 30.26 29.89 34.46 35.28 36.51 35.30 33.55 30.07 29.61 28.65 30.15 29.41 23.81 24.32 24.72 24.55 27.55 27.92 25.49 33.75 24.64 27.23 24.70 25.38 23.14 30.84 33.62 31.68 33.76 33.85 31.25 33.80 30.90 30.63
43.81 43.21 42.71 43.62 44.04 44.72 41.19 35.05 34.67 33.01 27.08 28.64 31.10 32.93 37.55 38.28 36.87 37.22 29.05 30.60 34.27 30.43 30.34 24.39 23.46 23.22 28.67 25.38 27.02 29.16 31.58 33.22 26.07 25.21 28.96 29.46 31.10 31.03 32.84 33.46 28.98 28.98 33.32 33.10
43.83 43.22 42.69 43.36 43.75 43.37 40.73 35.68 35.73 34.69 30.71 24.16 30.42 38.59 36.29 39.79 38.65 37.52 36.73 35.27 35.69 33.86 31.17 27.02 22.36 23.27 31.94 28.72 32.14 27.86 29.95 31.28 28.24 26.69 29.08 28.74 29.41 29.90 29.95 29.67 29.17 27.35 27.32 27.11
43.67 43.00 42.59 42.76 43.06 42.02 38.13 36.44 36.55 37.84 31.34 25.98 27.33 33.71 37.56 39.37 38.85 37.82 37.16 35.77 33.08 29.75 27.67 23.83 23.40 28.33 29.47 31.75 31.11 28.11 31.48 29.45 26.81 20.99 29.45 29.23 27.22 30.32 29.67 27.67 26.92 26.84 25.16 23.60
43.65 43.14 42.64 42.36 42.04 39.48 33.13 26.33 36.94 39.69 36.80 26.93 22.57 31.80 33.96 37.23 37.58 36.55 35.13 34.77 32.10 30.21 28.57 26.08 27.08 30.98 29.73 26.08 25.75 31.70 33.19 32.33 32.97 30.20 30.77 27.52 29.38 30.61 29.22 26.62 25.95 25.44 24.59 24.14
43.64 43.55 42.66 42.41 41.70 37.44 32.38 29.01 39.20 42.00 37.58 28.17 22.94 25.69 33.71 39.88 35.90 33.28 33.61 36.78 32.11 30.66 28.48 27.36 27.72 28.92 31.86 27.05 24.88 31.86 32.60 32.20 31.62 31.81 31.72 28.69 26.11 25.06 27.19 26.59 25.84 25.71 23.80 22.93
43.40 42.92 42.13 41.96 40.87 38.77 35.93 40.94 43.14 41.28 32.78 30.42 21.05 27.32 32.87 36.68 31.60 28.75 31.47 29.19 29.08 29.04 27.35 28.03 27.74 29.60 28.84 23.15 31.35 32.79 33.41 33.76 33.31 31.02 30.72 27.29 25.87 25.52 24.47 24.75 23.59 21.73 20.79 20.94
43.03 42.40 41.22 36.10 32.64 32.40 34.44 43.30 42.28 39.93 32.17 22.48 22.35 21.64 25.33 33.61 31.34 30.04 29.77 29.37 21.17 29.05 22.52 26.20 28.52 27.05 22.85 26.72 29.80 30.93 31.89 30.85 29.38 29.67 28.87 27.67 25.68 23.54 23.33 22.84 21.78 20.00 18.95 18.70
40.93 35.61 28.66 21.26 30.36 39.65 41.40 35.27 29.47 31.15 33.26 33.33 24.44 26.29 24.15 30.46 25.15 23.65 28.67 25.19 23.20 22.84 27.08 28.97 28.10 25.41 28.97 27.46 27.66 28.21 26.94 28.42 29.70 25.04 23.55 23.23 22.04 21.69 21.17 20.10 19.86 18.86 16.47 13.85
32.28 26.16 29.93 34.29 40.13 33.41 30.55 27.87 26.72 25.78 25.79 29.53 27.68 26.87 26.82 31.87 24.46 24.13 25.72 21.38 23.49 21.81 26.12 24.50 19.97 22.09 22.79 25.97 25.49 25.93 26.17 25.62 24.87 25.30 26.23 25.72 23.82 21.96 20.60 19.58 19.21 18.00 16.63 12.99
33.02 35.66 36.58 37.86 32.82 30.12 26.54 24.82 27.26 26.45 22.84 25.96 25.05 26.39 28.90 31.30 31.58 24.69 26.40 24.05 21.54 18.02 29.07 26.27 14.18 18.34 22.70 24.15 24.55 24.33 23.48 23.53 22.89 23.67 22.93 22.97 22.74 21.89 20.29 18.64 16.68 14.67 13.70 6.67
35.51 33.89 30.91 31.06 28.44 22.36 19.63 15.22 18.82 20.64 23.10 23.83 24.55 26.63 28.39 29.25 31.09 29.08 27.94 18.08 15.74 28.72 20.69 17.31 15.86 22.07 23.93 24.03 22.92 21.24 21.60 21.69 21.19 20.56 20.97 20.26 18.95 18.64 16.85 11.49 6.60 5.66 4.45 -0.99
26.13 21.21 22.72 23.90 21.51 23.38 18.74 19.98 20.01 24.29 22.77 24.64 25.37 27.37 30.23 23.91 21.75 19.29 14.89 19.57 26.42 17.68 10.72 18.42 19.04 21.05 23.46 22.89 22.57 20.09 14.30 13.38 13.57 11.00 10.77 10.40 10.56 4.45 3.25 3.17 1.81 2.94 4.27 -0.59
22.53 23.41 14.12 23.04 23.77 26.55 30.06 30.74 29.04 30.27 24.04 26.67 25.64 25.37 25.86 19.93 22.19 27.37 26.74 24.73 17.67 16.47 15.24 13.86 16.28 21.64 21.22 19.66 18.48 14.68 12.55 8.37 8.19 5.33 7.07 2.25 2.87 6.38 5.00 2.46 1.61 4.90 -0.41 -1.17
26.86 26.86 21.46 26.74 27.95 28.00 31.80 31.22 30.80 30.82 23.77 29.67 27.60 23.90 17.55 17.08 19.78 24.54 23.05 21.52 14.52 15.50 14.53 19.06 20.59 18.69 14.42 12.99 13.76 11.04 9.11 8.91 8.11 7.43 7.78 7.14 4.39 6.31 6.43 5.69 5.30 -0.29 -0.01 -1.21
25.79 21.79 26.43 28.78 26.92 26.11 32.01 32.19 31.75 31.80 25.74 24.35 24.14 17.91 17.95 23.28 23.56 22.53 22.05 19.73 15.23 20.41 22.31 18.64 17.35 16.71 12.57 11.29 11.05 10.04 11.26 10.88 9.67 8.18 10.00 10.10 10.79 9.57 13.03 11.85 8.93 10.54 12.55 5.42
MSLP
1007.36 1009.09 1011.62 1012.56 1013.32 1014.13 1014.67 1015.11 1016.12 1016.39 1017.04 1017.67 1018.18 1017.68 1016.77 1016.04 1016.03 1016.09 1016.47 1017.04 1017.89 1018.55 1019.04 1019.38 1019.06 1018.37 1016.38 1014.61 1014.09 1013.16 1012.07 1011.16 1009.51 1007.99 1006.92 1007.01 1007.27 1006.77 1006.15 1005.95 1006.55 1007.40 1008.62 1011.20
1007.60 1009.46 1011.33 1012.26 1012.64 1013.41 1013.98 1014.78 1016.21 1016.62 1016.71 1017.44 1017.84 1017.29 1016.65 1016.13 1016.10 1016.23 1016.50 1016.95 1017.57 1018.31 1019.12 1019.34 1018.82 1017.81 1015.51 1014.58 1014.16 1013.04 1012.38 1011.14 1009.87 1008.21 1007.67 1007.47 1007.21 1006.56 1006.28 1006.40 1006.81 1007.73 1009.24 1011.71
1007.88 1010.12 1011.11 1011.78 1012.72 1013.01 1013.08 1014.51 1016.13 1017.03 1017.12 1017.22 1017.06 1017.15 1016.84 1016.47 1016.12 1016.31 1016.40 1016.72 1017.19 1018.27 1018.80 1018.77 1018.72 1017.55 1015.68 1014.30 1013.88 1013.09 1012.53 1011.79 1011.10 1010.26 1009.25 1008.77 1007.81 1006.84 1006.73 1007.12 1007.46 1008.22 1010.26 1012.24
1008.56 1010.06 1011.02 1011.97 1012.09 1012.66 1013.10 1014.39 1015.30 1015.48 1016.77 1017.22 1016.93 1016.87 1016.84 1016.64 1016.47 1016.24 1016.28 1016.56 1017.18 1018.09 1018.32 1018.31 1018.13 1016.91 1015.99 1014.25 1013.67 1013.08 1012.82 1012.07 1011.69 1011.20 1010.50 1009.61 1009.13 1008.21 1007.72 1008.40 1009.14 1010.00 1012.23 1013.41
1009.10 1010.26 1010.99 1011.44 1012.16 1012.67 1013.20 1014.44 1015.04 1015.53 1015.97 1016.37 1016.76 1016.92 1016.89 1016.71 1016.53 1016.36 1016.33 1016.66 1017.10 1017.30 1017.73 1017.81 1017.06 1016.83 1016.08 1015.18 1013.81 1013.49 1013.06 1012.59 1012.05 1011.62 1011.36 1011.03 1010.84 1010.63 1010.05 1010.41 1011.68 1012.47 1013.31 1014.86
1009.32 1010.15 1011.26 1011.80 1012.15 1012.59 1013.36 1014.29 1014.48 1014.65 1016.38 1016.71 1016.97 1016.89 1016.60 1016.51 1016.43 1016.33 1016.44 1016.72 1016.84 1016.81 1016.70 1016.63 1015.95 1015.49 1015.08 1014.84 1014.58 1014.01 1013.22 1012.72 1012.14 1011.98 1011.60 1011.83 1012.40 1013.70 1013.11 1013.09 1013.56 1013.89 1014.61 1016.34
1009.75 1010.77 1011.37 1011.83 1012.29 1012.47 1013.18 1014.12 1014.63 1015.26 1016.76 1016.67 1016.59 1016.39 1016.41 1016.59 1016.59 1016.50 1016.92 1016.71 1016.68 1016.40 1016.07 1015.60 1014.37 1014.18 1014.03 1014.00 1013.31 1013.35 1012.79 1012.57 1012.14 1011.97 1012.12 1013.46 1015.40 1015.67 1015.56 1015.43 1015.85 1015.95 1016.47 1017.47
1010.23 1011.01 1011.59 1011.98 1012.22 1012.57 1013.22 1014.09 1014.59 1015.45 1016.85 1016.89 1016.56 1016.55 1016.79 1016.94 1016.91 1017.28 1017.20 1016.87 1016.81 1016.76 1016.43 1016.24 1015.12 1014.33 1013.91 1013.53 1012.73 1012.55 1012.46 1012.52 1012.33 1012.32 1013.24 1015.12 1015.87 1016.74 1017.01 1016.73 1017.61 1017.81 1017.91 1018.43
1010.62 1011.35 1011.86 1012.16 1012.56 1012.90 1013.20 1014.47 1014.63 1015.31 1016.50 1017.44 1016.84 1016.93 1017.02 1017.41 1017.81 1017.88 1017.48 1017.11 1017.02 1016.99 1017.33 1017.00 1016.47 1015.55 1014.96 1014.01 1013.15 1012.65 1012.57 1012.92 1013.11 1013.12 1014.21 1015.86 1017.32 1017.34 1017.23 1017.29 1018.38 1019.15 1019.32 1019.45
1011.11 1011.69 1012.15 1012.49 1012.89 1013.11 1013.51 1015.07 1014.95 1015.48 1016.99 1017.37 1017.02 1016.98 1017.11 1017.57 1018.17 1018.30 1018.42 1018.22 1017.75 1017.56 1018.13 1017.95 1017.51 1016.58 1015.73 1015.10 1014.47 1013.94 1013.66 1013.90 1014.46 1014.63 1015.53 1017.16 1018.21 1017.71 1017.34 1018.20 1020.23 1019.86 1020.14 1020.53
1011.45 1012.13 1012.50 1012.87 1013.24 1013.51 1013.97 1015.72 1015.40 1015.61 1017.16 1017.59 1017.18 1016.91 1017.14 1017.72 1018.03 1018.60 1018.63 1019.01 1018.61 1018.64 1019.11 1019.10 1018.48 1017.70 1016.68 1016.12 1015.49 1015.15 1015.28 1015.47 1016.09 1016.25 1017.02 1018.58 1018.75 1018.06 1018.64 1020.03 1020.35 1020.59 1020.78 1021.12
1011.96 1012.50 1012.95 1013.34 1013.73 1014.00 1014.21 1015.78 1015.88 1015.84 1016.91 1017.82 1017.60 1017.14 1017.04 1016.91 1017.34 1017.93 1018.72 1019.18 1019.11 1019.26 1019.77 1019.83 1019.31 1018.52 1017.63 1016.84 1016.04 1015.82 1016.38 1016.93 1017.33 1018.23 1019.17 1019.94 1020.02 1020.12 1020.37 1020.58 1020.76 1020.91 1021.21 1021.62
1012.43 1013.00 1013.48 1013.86 1014.26 1014.26 1014.49 1015.96 1016.23 1016.44 1017.48 1018.05 1017.51 1017.03 1016.81 1017.02 1017.11 1017.28 1018.31 1018.89 1018.80 1019.13 1019.39 1019.88 1019.72 1019.11 1018.29 1017.56 1017.26 1017.09 1017.45 1017.53 1018.22 1019.17 1020.12 1020.55 1020.87 1021.20 1021.25 1021.45 1021.80 1022.02 1022.09 1022.55
1012.89 1013.42 1013.85 1014.29 1014.64 1014.84 1015.08 1016.03 1016.51 1016.60 1017.64 1018.14 1017.85 1016.75 1016.67 1016.57 1016.89 1017.29 1017.69 1018.13 1018.68 1019.01 1019.40 1019.79 1019.75 1019.47 1018.45 1018.14 1017.87 1018.20 1018.57 1018.44 1019.01 1019.94 1020.70 1021.27 1021.75 1021.97 1022.05 1022.21 1022.45 1022.69 1023.05 1023.61
1013.35 1013.88 1014.35 1014.72 1015.04 1015.40 1015.78 1016.30 1016.78 1016.74 1017.36 1018.17 1018.06 1017.33 1016.76 1016.64 1016.93 1017.36 1017.65 1018.23 1018.87 1019.47 1019.82 1020.09 1019.92 1019.19 1018.78 1018.63 1018.67 1018.97 1019.27 1019.49 1019.70 1020.31 1020.70 1021.40 1022.24 1022.48 1022.68 1022.98 1023.50 1023.93 1024.19 1024.72
1013.77 1014.32 1014.83 1015.23 1015.56 1015.79 1016.10 1016.93 1017.17 1016.98 1017.08 1018.00 1018.50 1018.14 1017.52 1017.06 1017.15 1017.66 1017.98 1018.42 1019.06 1019.54 1020.02 1020.07 1019.68 1018.95 1018.82 1019.06 1019.39 1019.82 1019.93 1020.08 1020.23 1020.81 1021.30 1021.88 1022.49 1022.94 1023.35 1023.84 1024.40 1024.76 1025.10 1025.66
1014.23 1014.77 1015.33 1015.72 1015.96 1016.26 1016.80 1017.30 1017.30 1017.17 1017.38 1018.30 1019.09 1018.69 1017.94 1017.45 1017.71 1018.23 1018.48 1018.66 1019.20 1019.61 1020.02 1020.05 1019.80 1019.25 1018.94 1019.42 1019.84 1020.11 1020.38 1020.70 1021.02 1021.42 1021.76 1022.56 1023.12 1023.60 1024.07 1024.61 1025.24 1025.63 1026.03 1026.50
1014.81 1015.32 1015.80 1016.08 1016.32 1016.52 1017.07 1017.26 1017.18 1017.40 1018.17 1018.79 1019.32 1019.19 1018.51 1017.96 1018.43 1019.00 1019.23 1019.54 1019.79 1019.90 1020.10 1019.98 1019.84 1019.57 1019.71 1020.31 1020.38 1020.52 1020.72 1021.05 1021.55 1022.02 1022.14 1022.99 1023.95 1024.47 1025.09 1025.59 1026.06 1026.50 1026.96 1027.31
1015.37 1015.91 1016.24 1016.57 1017.08 1017.49 1017.77 1017.56 1017.60 1017.76 1018.82 1019.29 1019.56 1019.37 1018.95 1018.49 1018.91 1019.40 1019.74 1019.89 1020.48 1020.38 1020.42 1020.11 1020.10 1020.54 1021.05 1021.26 1021.12 1021.16 1021.29 1021.45 1022.04 1022.59 1023.05 1023.85 1024.53 1025.30 1025.91 1026.45 1026.97 1027.39 1028.03 1028.49
1015.93 1016.38 1016.96 1018.13 1018.00 1017.71 1017.74 1018.09 1018.33 1018.59 1018.98 1019.18 1019.49 1019.56 1019.11 1018.99 1019.57 1020.02 1020.36 1020.47 1020.58 1020.62 1020.25 1019.97 1020.46 1021.38 1021.96 1022.09 1022.01 1022.16 1022.31 1022.41 1022.70 1023.33 1024.17 1024.85 1025.36 1026.09 1026.83 1027.44 1027.98 1028.44 1029.04 1029.55
1016.49 1017.37 1017.90 1018.18 1017.90 1018.03 1018.49 1018.80 1018.97 1019.25 1019.59 1019.36 1019.45 1019.44 1019.16 1019.04 1019.46 1020.04 1020.37 1020.65 1020.77 1020.73 1020.30 1020.42 1021.29 1022.00 1022.52 1022.86 1022.99 1023.17 1023.38 1023.61 1023.97 1024.15 1024.44 1024.90 1025.64 1026.56 1027.33 1028.15 1028.72 1029.32 1029.87 1030.54
1016.85 1017.06 1017.78 1018.16 1018.41 1018.62 1018.90 1019.13 1019.43 1019.43 1019.46 1019.38 1019.36 1019.17 1019.15 1019.20 1019.18 1019.81 1020.46 1020.69 1020.98 1020.78 1020.51 1021.00 1021.85 1022.27 1022.76 1023.39 1023.85 1024.26 1024.61 1024.87 1025.28 1025.57 1025.91 1026.38 1026.86 1027.44 1028.17 1028.95 1029.75 1030.46 1030.94 1031.49
1017.11 1017.63 1018.16 1018.31 1018.95 1018.86 1019.01 1019.31 1019.42 1019.36 1018.92 1018.94 1019.04 1019.34 1019.22 1019.38 1019.53 1020.21 1020.46 1020.85 1021.18 1020.87 1021.19 1021.71 1022.14 1022.63 1023.33 1023.93 1024.60 1025.31 1025.76 1026.10 1026.52 1027.02 1027.38 1027.77 1028.23 1028.63 1029.29 1030.15 1030.90 1031.27 1031.72 1031.96
1018.00 1018.36 1018.50 1018.51 1018.70 1018.45 1018.42 1018.40 1018.43 1018.20 1018.22 1018.64 1018.78 1019.30 1019.37 1019.89 1020.22 1020.49 1020.89 1020.95 1021.06 1021.58 1022.42 1022.18 1022.28 1022.94 1023.73 1024.59 1025.33 1025.98 1026.81 1027.32 1027.77 1028.27 1028.63 1029.07 1029.50 1030.08 1030.55 1030.77 1031.19 1031.58 1032.29 1032.29
1018.54 1018.69 1019.02 1018.65 1018.42 1017.96 1017.72 1017.75 1018.01 1018.01 1018.08 1018.31 1018.94 1019.43 1019.72 1020.49 1020.73 1020.57 1020.70 1021.18 1021.72 1022.00 1022.16 1022.23 1022.76 1023.49 1024.40 1025.29 1026.08 1026.87 1027.70 1028.30 1028.80 1029.20 1029.62 1029.99 1030.31 1030.68 1031.15 1031.19 1031.46 1031.74 1032.03 1032.32
1019.04 1019.01 1018.94 1018.47 1018.21 1017.81 1017.57 1017.62 1017.81 1017.99 1018.00 1018.17 1018.74 1019.74 1020.20 1020.77 1020.68 1020.91 1021.03 1021.52 1021.72 1021.68 1022.27 1022.66 1023.44 1024.38 1025.20 1026.01 1026.75 1027.44 1028.04 1028.61 1029.19 1029.70 1030.11 1030.43 1030.74 1030.98 1031.23 1031.19 1031.39 1031.60 1031.85 1032.03
1019.29 1019.11 1018.87 1018.77 1018.47 1018.12 1017.60 1017.50 1017.72 1017.91 1018.14 1019.10 1019.16 1019.89 1020.23 1020.61 1020.91 1021.20 1021.29 1021.44 1021.66 1022.06 1022.80 1023.57 1024.24 1024.97 1025.79 1026.54 1027.18 1027.82 1028.40 1028.98 1029.46 1029.91 1030.27 1030.48 1030.52 1030.75 1030.92 1031.06 1031.00 1031.17 1031.30 1031.36
Wind_Speed
34 32 27 25 23 18 6 4 5 3 3 3 0 4 5 2 2 1 0 3 5 5 2 2 2 7 4 9 12 11 5 5 5 9 4 4 2 9 4 2 1 3 3 4
32 28 27 24 22 17 5 5 4 1 3 4 1 3 3 2 2 1 2 2 4 2 4 1 6 5 8 12 11 4 6 4 6 6 1 1 2 6 6 4 2 4 1 4
30 27 25 22 20 14 3 5 5 2 3 1 6 5 3 3 0 3 2 3 4 1 2 4 6 5 9 13 3 13 3 4 4 8 13 10 7 6 2 3 2 8 8 10
28 26 23 20 15 11 2 2 3 5 5 3 5 4 5 4 1 1 1 1 1 2 3 4 5 7 7 6 4 7 2 4 4 11 14 15 20 17 5 10 11 8 9 12
26 24 20 17 13 10 3 5 5 2 4 6 6 4 6 7 4 3 2 2 5 3 5 8 13 9 0 8 6 6 4 5 2 4 16 21 19 22 22 17 12 10 12 10
24 21 18 15 11 4 3 1 2 5 2 5 5 5 6 7 5 1 4 2 1 3 6 7 15 14 15 14 9 4 3 4 3 3 7 5 12 16 18 14 20 8 7 6
23 19 17 13 8 4 3 2 3 5 2 4 5 7 4 5 2 4 1 2 1 4 8 12 10 8 10 9 13 11 4 5 3 2 1 6 3 11 8 19 16 15 12 9
21 19 16 12 9 6 4 2 3 4 4 2 4 7 6 3 4 2 3 1 3 6 5 5 5 4 5 3 5 4 4 2 2 2 6 6 3 8 7 6 9 14 5 5
19 18 15 13 11 8 5 3 2 4 7 2 0 4 2 4 1 4 2 4 4 6 2 2 2 2 3 4 8 3 4 9 3 3 4 3 5 15 9 4 5 10 9 9
19 17 15 14 12 10 6 3 3 5 5 2 2 3 4 4 2 2 3 6 6 4 3 3 2 2 2 3 6 6 4 4 6 5 4 5 11 11 4 2 2 5 8 8
18 17 15 14 12 9 5 2 4 5 4 1 2 1 5 3 3 3 3 4 5 4 4 2 2 2 2 2 2 3 4 4 3 3 4 2 15 4 4 4 4 6 7 8
16 15 14 13 12 9 6 4 3 2 5 3 1 3 2 3 7 5 1 3 1 2 3 1 1 2 3 3 1 5 4 3 2 5 4 3 5 9 8 7 6 4 7 7
17 16 15 14 12 11 8 3 1 4 4 3 4 3 4 3 4 4 5 2 2 1 4 3 2 1 1 3 2 1 3 4 3 2 4 7 7 7 6 5 8 9 5 6
17 15 15 14 13 12 7 4 0 4 4 5 3 3 2 2 6 4 4 4 3 3 2 2 2 1 0 2 3 3 2 5 3 4 6 6 6 4 5 10 11 12 12 11
17 16 15 14 14 13 7 4 3 2 5 4 1 4 2 2 7 5 3 3 2 2 2 2 1 2 2 1 2 2 4 3 1 2 5 3 3 1 5 8 8 8 10 9
17 16 15 13 12 7 4 5 4 3 2 5 3 3 4 3 5 5 4 3 2 2 2 2 3 3 2 2 1 3 3 6 2 3 5 5 5 2 6 8 8 9 10 7
15 16 14 13 9 4 4 4 2 2 2 4 3 3 3 3 3 2 2 3 2 2 1 1 1 2 2 1 2 5 6 8 7 7 7 7 5 3 10 11 10 11 9 8
18 17 14 12 8 6 4 2 4 4 4 4 3 0 1 4 2 1 1 2 3 3 1 1 1 2 2 3 5 8 8 8 6 5 8 9 9 9 9 8 6 8 7 7
18 17 11 5 5 3 1 3 7 3 4 3 3 4 2 2 2 1 2 2 2 1 0 2 3 1 2 2 4 6 4 3 11 10 12 10 10 8 6 6 5 7 6 6
14 6 5 4 2 3 4 5 3 3 2 2 1 0 2 3 1 1 2 2 1 1 3 2 3 2 5 4 5 6 5 6 8 8 5 5 5 7 6 7 5 6 5 4
4 3 3 1 2 4 3 2 2 1 1 2 2 3 2 1 3 3 2 2 0 0 2 3 2 3 3 4 6 5 7 8 7 5 4 5 7 8 8 7 7 6 5 3
5 5 3 2 2 2 2 2 0 2 4 3 4 4 4 1 2 4 1 1 2 2 0 2 2 2 6 7 8 7 6 8 9 8 9 8 9 7 7 6 5 4 4 3
3 4 3 3 1 2 5 6 3 2 3 3 2 2 3 2 3 2 1 3 4 1 2 3 4 5 7 8 8 7 6 8 8 8 8 8 7 7 6 6 3 4 4 1
4 3 5 2 3 4 4 3 4 5 3 4 3 3 2 1 3 3 3 4 1 2 0 5 3 7 8 7 6 7 4 6 7 6 6 7 6 4 3 4 4 4 2 1
3 2 2 4 3 3 2 2 1 1 2 4 3 4 3 1 4 1 1 0 3 5 6 4 3 8 8 7 5 7 6 5 5 3 5 4 4 4 2 1 2 2 2 1
2 0 1 2 2 1 1 1 1 1 2 2 3 3 4 2 4 2 4 3 6 5 3 2 6 7 5 6 6 5 5 5 5 4 4 4 4 3 2 1 1 2 2 3
1 2 1 3 3 3 1 1 1 1 4 2 3 4 6 1 1 3 4 5 4 2 2 2 4 9 7 6 6 6 6 6 5 4 3 3 2 2 1 2 3 4 5 6
Wind_Direction
141 147 158 159 163 160 134 134 101 146 150 92 258 157 191 119 87 77 124 141 184 197 177 292 302 246 229 283 320 303 300 288 280 282 152 134 318 273 251 186 322 60 123 71
141 145 155 162 161 168 149 101 113 42 118 150 240 233 133 112 122 235 189 238 168 94 183 345 202 256 256 291 321 292 334 287 304 305 130 198 212 251 290 83 52 182 107 87
137 150 153 156 169 183 100 105 111 44 59 210 140 138 136 138 300 229 226 229 90 66 295 184 275 279 298 313 267 292 293 274 293 279 280 318 285 268 318 65 344 86 66 106
140 145 152 159 152 159 105 50 170 172 182 235 141 113 142 138 199 218 84 88 65 226 314 302 225 255 308 307 289 345 10 282 5 35 46 47 39 28 137 85 43 48 86 78
140 145 147 145 144 136 84 128 134 52 120 126 111 145 191 178 202 175 279 160 297 276 213 209 289 301 198 256 317 344 9 314 300 59 68 45 43 30 43 66 80 93 92 77
136 135 146 143 144 147 107 112 31 107 4 115 114 198 170 193 157 359 87 135 352 279 254 247 263 258 258 253 286 298 280 311 314 327 9 317 37 13 31 50 31 17 54 65
133 138 134 128 130 134 115 134 108 91 134 124 184 154 137 122 138 140 3 15 12 255 307 294 271 245 240 228 254 217 258 293 265 272 108 43 109 26 30 58 33 29 74 78
132 131 128 121 98 122 100 110 104 115 98 108 85 124 126 89 41 61 196 287 247 308 312 329 328 345 14 198 263 343 51 295 284 327 50 122 81 21 335 10 45 18 69 112
127 127 126 115 98 108 84 58 86 94 118 268 57 103 119 114 46 358 338 321 311 27 27 20 352 46 323 322 329 36 56 60 331 82 74 83 39 330 317 289 64 26 32 28
129 125 120 108 90 89 95 53 26 87 102 266 123 141 139 118 114 137 307 329 348 32 21 55 23 308 313 317 349 336 344 21 18 11 95 86 346 323 323 256 86 44 50 43
128 126 119 107 96 99 82 96 6 111 103 292 21 79 118 86 88 124 279 36 343 24 53 33 324 329 17 274 348 347 22 347 17 327 70 48 352 30 62 87 94 90 76 76
128 125 120 109 94 84 92 77 339 44 87 161 297 294 255 137 172 133 25 173 219 175 84 6 349 350 331 320 32 4 39 24 52 15 86 67 23 61 56 63 51 85 94 92
124 120 122 111 90 74 94 110 26 57 75 1 48 73 26 140 195 149 116 297 226 58 173 166 199 32 340 347 52 32 31 32 85 124 93 87 76 56 51 53 78 56 75 125
125 118 114 114 96 79 87 89 341 87 112 105 280 340 67 120 148 149 150 143 50 94 91 101 121 160 327 317 37 58 339 328 85 72 105 103 75 47 51 87 85 73 61 71
132 121 113 114 105 94 81 74 33 54 115 149 263 305 313 231 160 178 141 116 101 65 34 57 251 263 19 42 44 51 357 6 5 171 130 89 113 68 90 90 92 91 93 75
128 123 115 110 106 96 62 39 352 8 65 83 87 295 326 30 123 139 132 121 104 103 131 241 283 261 100 85 81 74 49 35 354 105 77 84 120 119 107 103 98 91 91 89
129 124 115 109 93 69 85 157 104 51 61 74 37 358 316 4 83 47 49 44 83 116 158 225 231 297 71 88 122 132 113 97 93 108 112 78 30 98 107 98 89 86 83 76
123 116 111 104 83 74 52 18 35 101 79 57 105 357 236 4 80 46 12 67 22 8 207 336 216 353 52 81 129 138 129 125 122 84 72 99 102 87 92 96 102 92 85 85
122 117 101 63 37 54 114 108 72 60 112 128 95 147 169 351 56 96 31 84 34 290 75 257 83 4 54 311 133 120 111 147 141 129 125 127 117 108 97 99 98 103 91 83
108 58 54 30 270 243 100 14 40 39 10 17 203 242 258 104 17 333 96 6 199 121 246 98 68 82 98 42 66 80 62 39 118 120 121 113 109 121 113 99 90 100 103 85
49 65 64 226 207 55 28 97 126 173 325 184 228 189 141 255 113 200 180 199 199 304 253 125 198 177 161 148 101 87 84 82 68 73 75 91 122 131 122 109 98 97 101 105
138 109 94 85 80 102 130 143 219 210 225 184 163 205 192 40 87 90 290 105 31 231 177 97 284 219 135 132 127 102 87 91 80 71 86 89 94 98 105 103 99 93 104 102
57 66 132 160 186 139 167 186 252 227 204 193 158 118 135 46 40 60 51 77 231 285 37 232 221 157 144 138 124 102 94 97 99 90 87 90 83 74 97 111 100 132 106 46
70 94 132 185 187 221 191 190 194 235 129 142 121 87 118 123 62 170 79 237 89 60 5 237 188 168 150 136 139 126 116 100 101 94 87 94 105 107 100 126 153 129 137 7
73 84 182 211 232 239 239 191 294 256 184 112 68 52 90 44 99 220 20 178 262 210 228 230 181 142 141 139 127 128 130 128 120 122 120 133 135 130 135 213 191 127 114 70
62 213 313 275 215 300 192 175 181 221 149 85 60 112 63 277 138 142 205 219 228 245 214 173 130 135 128 133 135 141 141 139 137 135 137 133 137 152 203 341 285 257 205 247
1 277 255 251 258 240 290 167 163 97 75 150 116 97 203 104 161 232 174 212 224 182 146 112 133 152 153 140 132 138 139 139 144 143 149 169 173 127 61 288 270 232 234 224